[[{"header":{"parameterUnit":"m.s-1","parameterCategory":1,"la1":30.2991,"la2":30.254,"lo1":-89.0895,"lo2":-89.0444,"dy":0.0017,"dx":0.0017,"nx":28,"ny":28,"refTime":"2024-03-25T03:00:00:Z","depth":0,"parameterNumber":2,"parameterNumberName":"U-component_of_WINDS"},"data":[0,0,0,0,0,0,0,0,0,0,0,0,0,0,0,0,0,0,0,0,0,0,0,0,0,0,0,0,0,0,0,0,0,0,0,0,0,0,0,0,0,0,0,0,0,0,0,0,0,0,0,0,0,0,0,0,0,0,3.4627,3.4628,0,3.4675,3.4676,3.4676,3.4622,3.462,3.4618,3.4616,3.4669,3.4672,3.4675,0,0,0,0,0,0,0,0,0,0,0,0,0,3.4494,3.4497,3.4627,3.4628,3.4628,3.4675,3.4676,3.4676,3.4622,3.462,3.4617,3.4615,3.4668,3.4671,3.4675,0,0,0,0,0,0,0,0,0,0,0,0,0,3.4548,3.4498,3.4627,3.4607,3.4605,3.4675,3.4676,3.4677,3.4623,3.462,3.4616,3.4614,3.4666,3.4671,3.4676,3.4769,0,0,3.4691,3.4693,0,0,0,0,0,0,0,0,3.4545,3.4553,3.4609,3.4608,3.4607,3.4639,3.4648,3.4708,3.4623,3.4616,3.4616,3.4612,3.4662,3.4667,3.4683,3.4771,3.4774,3.4692,3.4695,3.4697,3.4698,0,0,0,0,0,0,0,3.4541,3.4551,3.4646,3.461,3.4609,3.4597,3.4601,3.4659,3.4656,3.4617,3.4613,3.4619,3.466,3.4678,3.4684,3.4774,3.4692,3.4696,3.4699,3.4701,3.4945,3.4949,0,0,0,0,0,0,3.4539,3.4548,3.4645,3.4648,3.4568,3.4602,3.4607,3.4632,3.4655,3.4655,3.4622,3.4616,3.4671,3.4678,3.4685,3.4798,3.4697,3.4702,3.4704,3.4942,3.4946,3.495,0,0,0,0,0,0,3.4537,3.4548,3.4643,3.4597,3.4608,3.4608,3.4636,3.4635,3.4652,3.4659,3.4658,3.464,3.4669,3.4678,3.4749,3.4799,3.4704,3.4708,3.4938,3.4943,3.4948,3.5022,0,0,0,0,0,0,3.4533,3.4548,3.4581,3.4598,3.461,3.4704,3.4639,3.4638,3.466,3.4654,3.4676,3.4676,3.4667,3.4742,3.4754,3.4804,3.4712,3.4933,3.494,3.4946,3.5015,3.5029,3.5041,0,0,0,0,0,3.4528,3.4601,3.4583,3.4595,3.4652,3.4707,3.4714,3.4701,3.4665,3.47,3.4705,3.4676,3.4791,3.475,3.4763,3.4815,3.493,3.4938,3.4946,3.501,3.5027,3.5041,0,0,0,0,0,0,3.459,3.4602,3.4583,3.4662,3.4684,3.4698,3.4741,3.4719,3.4753,3.4745,3.4729,3.4734,3.481,3.4819,3.4773,3.4908,3.4855,3.4866,3.4899,3.4915,3.4928,3.4925,3.4716,0,0,0,0,0,3.4613,3.4655,3.4664,3.4733,3.4745,3.4742,3.4765,3.4753,3.4775,3.4784,3.4794,3.4818,3.486,3.4888,3.4926,3.5016,3.5022,3.5059,3.5072,3.5083,3.5093,3.5144,3.5162,3.4976,3.4976,3.4975,0,0,3.4661,3.4673,3.47,3.4746,3.4761,3.4807,3.4749,3.48,3.4834,3.4792,3.486,3.4868,3.4894,3.4976,3.5012,3.4986,3.5145,3.5093,3.5101,3.5105,3.5154,3.5172,3.5187,3.4981,3.498,3.4979,0,0,3.4772,3.4784,3.4844,3.4861,3.4885,3.4883,3.4897,3.4915,3.4919,3.4986,3.4957,3.4999,3.507,3.5091,3.5111,3.5233,3.5209,3.5246,3.5314,3.5364,3.5379,3.5392,3.5438,3.5455,3.5255,3.5256,3.5256,0,3.4828,3.4895,3.4878,3.4931,3.4954,3.4917,3.498,3.4997,3.5034,3.5051,3.5021,3.5112,3.5126,3.5214,3.5244,3.526,3.5279,3.5243,3.5378,3.5391,3.5403,3.5447,3.5464,3.526,3.526,3.5259,3.5259,0,3.4965,3.5012,3.5058,3.5093,3.5121,3.5178,3.5173,3.5203,3.5189,3.5191,3.5263,3.5279,3.5322,3.5341,3.5328,3.5428,3.5412,3.538,3.5327,3.5425,3.5466,3.5483,3.5267,3.5265,3.5264,3.5263,0,0,3.5115,3.5142,3.5159,3.5177,3.5202,3.5239,3.5296,3.5337,3.5365,3.5392,3.5441,3.5504,3.5476,3.5499,3.5488,3.5532,3.5631,3.5495,3.5496,3.5522,3.5745,3.577,3.579,3.5615,3.5618,3.562,3.5744,0,3.5228,3.5326,3.5314,3.5409,3.5454,3.5422,3.5472,3.5494,3.5498,3.5539,3.5543,3.5589,3.5547,3.5561,3.5603,3.561,3.5676,3.5601,3.5663,3.5666,3.5659,3.5811,3.5836,3.5952,3.576,3.5762,3.5764,0,3.5372,3.5404,3.5504,3.5525,3.5544,3.5589,3.5628,3.5665,3.5691,3.5691,3.5718,3.5701,3.5761,3.5706,3.5791,3.574,3.5765,3.5773,3.5777,3.5783,3.5722,3.5824,3.5988,3.6007,3.5789,3.5787,3.5785,0,3.5475,3.5543,3.5612,3.5628,3.5653,3.5687,3.5699,3.5722,3.5748,3.5783,3.58,3.5841,3.5864,3.5898,3.5893,3.5853,3.598,3.5924,3.5984,3.5985,3.6013,3.6012,3.6187,3.6027,3.6026,3.6026,3.6026,0,3.5603,3.5666,3.5659,3.5702,3.5773,3.5759,3.583,3.5839,3.586,3.5905,3.5879,3.5923,3.5913,3.5957,3.5954,3.6026,3.6036,3.604,3.6039,3.6043,3.6043,3.606,3.6053,3.603,3.6029,3.6029,3.6028,0,3.573,3.5727,3.5801,3.582,3.5826,3.5878,3.5895,3.5937,3.5939,3.5997,3.601,3.6015,3.6066,3.6064,3.6121,3.6119,3.6209,3.6197,3.62,3.6199,3.626,3.6255,3.6453,3.648,3.6301,3.6302,3.6304,0,3.5813,3.586,3.5885,3.5913,3.5928,3.5974,3.6001,3.5991,3.6021,3.6056,3.6094,3.6142,3.6181,3.6264,3.6274,3.6319,3.6309,3.6376,3.6316,3.632,3.6313,3.6311,3.6317,3.6388,3.639,3.6392,3.6393,0,3.5961,3.5958,3.5997,3.6038,3.6072,3.6103,3.6132,3.6157,3.6151,3.6186,3.6238,3.6268,3.6327,3.6377,3.6421,3.6435,3.6415,3.6412,3.6429,3.6435,3.6435,3.6438,3.6235,3.6408,3.6406,3.6405,3.6404,3.6404,3.6069,3.6112,3.6136,3.6182,3.6203,3.6232,3.6273,3.6281,3.6323,3.6371,3.6362,3.6421,3.6449,3.6505,3.6524,3.6571,3.6548,3.6572,3.6578,3.6584,3.6592,3.6426,3.6579,3.6579,3.6578,3.6578,3.6578,0,3.6218,3.6233,3.6276,3.6317,3.6355,3.6331,3.6362,3.6396,3.6447,3.6474,3.6513,3.6574,3.6623,3.6637,3.6684,3.672,3.6712,3.6733,3.6731,3.6735,3.6609,3.6591,3.6739,3.6739,3.6739,3.6739,3.6739,3.6739,3.63,3.6371,3.6372,3.6454,3.6468,3.6525,3.6546,3.6573,3.6595,3.6664,3.6704,3.6713,3.6736,3.6785,3.683,3.6833,3.6852,3.6878,3.6878,3.676,3.6744,3.6728,3.6711,3.6882,3.6882,3.7,3.7001,3.7002]},{"header":{"parameterUnit":"m.s-1","parameterCategory":1,"la1":30.2991,"la2":30.254,"lo1":-89.0895,"lo2":-89.0444,"dy":0.0017,"dx":0.0017,"nx":28,"ny":28,"refTime":"2024-03-25T03:00:00:Z","depth":0,"parameterNumber":3,"parameterNumberName":"V-component_of_WINDS"},"data":[0,0,0,0,0,0,0,0,0,0,0,0,0,0,0,0,0,0,0,0,0,0,0,0,0,0,0,0,0,0,0,0,0,0,0,0,0,0,0,0,0,0,0,0,0,0,0,0,0,0,0,0,0,0,0,0,0,0,1.8087,1.809,0,1.8374,1.8377,1.838,1.8448,1.8446,1.8444,1.8442,1.874,1.8749,1.8759,0,0,0,0,0,0,0,0,0,0,0,0,0,1.7599,1.7607,1.8086,1.809,1.8093,1.8373,1.8377,1.8381,1.8448,1.8446,1.8443,1.8441,1.8737,1.8748,1.876,0,0,0,0,0,0,0,0,0,0,0,0,0,1.7841,1.761,1.8086,1.816,1.817,1.8372,1.8377,1.8382,1.8448,1.8445,1.8443,1.844,1.8733,1.8747,1.8762,1.8911,0,0,1.8806,1.8813,0,0,0,0,0,0,0,0,1.7827,1.7859,1.8146,1.8156,1.8167,1.8372,1.8315,1.856,1.8449,1.8343,1.8442,1.8438,1.862,1.8644,1.8704,1.8925,1.8938,1.8808,1.8817,1.8823,1.8827,0,0,0,0,0,0,0,1.781,1.7847,1.82,1.815,1.8163,1.8181,1.8212,1.8361,1.8495,1.8352,1.8357,1.839,1.8625,1.869,1.8712,1.8942,1.8807,1.882,1.8829,1.8835,1.9301,1.9304,0,0,0,0,0,0,1.778,1.7832,1.8191,1.8209,1.7986,1.8192,1.8227,1.8309,1.8493,1.8518,1.8393,1.8392,1.8666,1.8695,1.8723,1.8911,1.8823,1.8837,1.8845,1.9298,1.9302,1.9306,0,0,0,0,0,0,1.7769,1.7811,1.8179,1.8022,1.807,1.8203,1.8295,1.8316,1.8381,1.8524,1.8548,1.8434,1.8665,1.8702,1.8864,1.8922,1.8843,1.8857,1.9293,1.9299,1.9304,1.9287,0,0,0,0,0,0,1.7755,1.7807,1.7864,1.8023,1.8078,1.8315,1.8299,1.8324,1.8406,1.8408,1.8569,1.8593,1.8666,1.8841,1.8878,1.8941,1.8868,1.9289,1.9296,1.9302,1.9283,1.9291,1.9298,0,0,0,0,0,1.7737,1.7849,1.7867,1.791,1.8153,1.8318,1.835,1.843,1.841,1.847,1.8561,1.8588,1.8909,1.8857,1.89,1.8967,1.9285,1.9294,1.9302,1.928,1.929,1.9298,0,0,0,0,0,0,1.7695,1.7871,1.7893,1.8059,1.8173,1.8329,1.8406,1.8438,1.8561,1.8558,1.8653,1.8689,1.8845,1.8922,1.8862,1.9122,1.9097,1.9114,1.9066,1.9076,1.9084,1.9063,1.888,0,0,0,0,0,1.7705,1.7823,1.7971,1.8103,1.8159,1.8273,1.8348,1.8399,1.8521,1.857,1.8674,1.8792,1.892,1.9002,1.9128,1.9294,1.9331,1.9361,1.9368,1.9374,1.9388,1.9482,1.9498,1.9332,1.9332,1.9332,0,0,1.7727,1.7838,1.7907,1.8098,1.8192,1.8313,1.8313,1.8441,1.8533,1.859,1.8749,1.8829,1.8968,1.9132,1.921,1.9202,1.9442,1.9384,1.9388,1.9399,1.9492,1.9508,1.9521,1.9338,1.9337,1.9336,0,0,1.783,1.7925,1.8046,1.814,1.8282,1.8357,1.8385,1.8537,1.8592,1.8752,1.8798,1.8908,1.9126,1.9223,1.9301,1.9439,1.9469,1.9477,1.9517,1.9608,1.9621,1.9633,1.9683,1.97,1.949,1.949,1.949,0,1.784,1.8023,1.8104,1.8231,1.8314,1.837,1.8493,1.8581,1.8757,1.8814,1.8801,1.9075,1.9173,1.9361,1.9394,1.9455,1.9492,1.946,1.9612,1.9625,1.9638,1.9687,1.9705,1.949,1.949,1.949,1.949,0,1.8029,1.8156,1.8236,1.8404,1.8496,1.862,1.8721,1.8804,1.8848,1.8924,1.9087,1.9205,1.9355,1.9404,1.9448,1.9599,1.9589,1.9593,1.957,1.9652,1.97,1.9719,1.9491,1.9491,1.9491,1.949,0,0,1.8115,1.8324,1.8353,1.8429,1.859,1.869,1.8817,1.8963,1.9033,1.9152,1.9262,1.9444,1.9449,1.9537,1.9592,1.9672,1.9774,1.9667,1.9671,1.9683,1.9949,1.9945,1.9966,1.9794,1.9798,1.9801,1.9937,0,1.8237,1.8465,1.8542,1.8731,1.885,1.8904,1.9015,1.9126,1.92,1.9312,1.9395,1.9523,1.9519,1.9572,1.9653,1.9744,1.9829,1.9736,1.9899,1.9903,1.9863,1.9991,1.9988,2.0111,1.9957,1.996,1.9962,0,1.8412,1.8532,1.8733,1.8879,1.8931,1.9029,1.9169,1.9275,1.9402,1.9451,1.9548,1.9598,1.9734,1.9701,1.989,1.9825,1.9896,1.9951,1.9957,1.9977,1.9939,2.0015,2.0152,2.0171,1.9992,1.999,1.9988,0,1.8455,1.8667,1.8815,1.8879,1.9052,1.912,1.9196,1.932,1.9403,1.9525,1.958,1.9716,1.9792,1.9897,1.9982,1.995,2.0164,2.0138,2.0209,2.0207,2.0253,2.0249,2.0405,2.0296,2.0296,2.0295,2.0295,0,1.8585,1.8706,1.8837,1.8928,1.9065,1.9152,1.9286,1.9365,1.9475,1.9583,1.9638,1.9739,1.9844,1.9959,2.0026,2.0173,2.0207,2.025,2.0267,2.0247,2.0241,2.0295,2.029,2.03,2.0299,2.0298,2.0297,0,1.8657,1.8749,1.8914,1.9064,1.9105,1.9199,1.9329,1.942,1.9495,1.9632,1.9669,1.9789,1.9926,2.0021,2.0198,2.0243,2.0402,2.0417,2.0359,2.0368,2.0433,2.0426,2.0631,2.0662,2.0531,2.0532,2.0533,0,1.8734,1.8828,1.8988,1.9064,1.9139,1.9261,1.9345,1.9434,1.952,1.9671,1.9744,1.9885,2.0003,2.022,2.0324,2.046,2.0479,2.0541,2.05,2.0476,2.0482,2.0475,2.0486,2.0548,2.0549,2.055,2.0551,0,1.8862,1.8903,1.9021,1.9157,1.9256,1.9367,1.9478,1.9537,1.9646,1.974,1.9881,1.9972,2.0152,2.0292,2.0437,2.0516,2.0552,2.0562,2.0586,2.0567,2.0529,2.0551,2.0378,2.0558,2.0557,2.0556,2.0556,2.0556,1.894,1.9026,1.9152,1.9283,1.9376,1.9479,1.9572,1.9659,1.9777,1.993,1.9976,2.0122,2.0247,2.0446,2.0527,2.0644,2.0639,2.0673,2.0682,2.069,2.069,2.0509,2.0671,2.067,2.067,2.067,2.067,0,1.9071,1.9154,1.9274,1.9428,1.9531,1.9554,1.9679,1.9764,1.9891,2.0005,2.0119,2.0281,2.0417,2.053,2.0671,2.0742,2.0762,2.0776,2.0773,2.0791,2.0686,2.0651,2.0758,2.0758,2.0758,2.0758,2.0758,2.0758,1.9151,1.9299,1.9355,1.955,1.9633,1.9776,1.9845,1.9941,2.0032,2.021,2.0322,2.0395,2.0509,2.0658,2.0784,2.0814,2.0864,2.0874,2.0908,2.0808,2.0798,2.0788,2.0757,2.0884,2.0884,2.1004,2.1005,2.1005]}]]